Wind_Speed
31 31 30 30 29 29 29 28 28 27 27 27 26 26 25 24 23 22 21 19 18 17 16 15 13 11 10 9 9 9 8 7 6 5 4 3 2 2 1 2 2 3 4 4 5 5 5 5 5 5 5 6 6 7 7 7 7 7 7 7 7 7 7 7 7 7 8 8 7
31 31 31 30 30 30 30 29 29 28 27 27 26 26 25 24 23 22 21 20 18 17 16 14 13 11 10 9 10 10 9 8 7 6 5 4 3 2 2 2 2 3 4 5 5 5 5 6 6 6 6 6 7 7 7 7 7 7 7 7 7 7 7 7 8 8 8 8 8
31 31 31 31 31 31 31 30 30 29 28 27 27 26 26 25 24 22 21 19 18 17 15 14 12 11 11 11 11 10 9 8 7 6 5 4 3 2 2 3 3 4 5 5 6 6 6 6 6 6 7 7 7 7 7 7 7 7 6 6 7 7 7 8 8 8 8 8 9
31 32 32 32 33 33 32 32 30 29 28 28 27 27 26 25 24 22 20 19 18 17 16 14 13 12 12 12 12 11 10 9 8 7 6 5 4 3 3 4 4 5 5 6 7 7 7 7 7 7 7 7 7 7 7 6 6 6 6 6 6 7 7 8 8 8 9 9 9
32 32 33 33 33 33 33 32 30 29 28 28 27 27 26 26 24 22 20 19 18 17 15 14 13 13 13 13 13 12 11 10 9 8 6 5 4 4 4 5 5 5 6 6 7 8 8 8 8 8 7 7 6 6 6 6 5 5 5 5 6 6 7 8 9 9 10 10 10
33 33 33 33 33 33 33 32 30 29 29 28 28 28 27 26 25 22 20 19 17 16 15 15 15 15 15 14 13 12 11 10 10 8 7 6 6 5 5 5 5 5 6 7 8 8 9 8 8 8 7 7 6 5 5 5 5 5 5 6 6 7 8 8 9 9 10 10 11
33 33 33 34 34 34 33 32 30 29 29 29 29 29 28 27 24 22 19 18 16 16 16 16 16 16 16 15 14 13 12 11 10 9 8 7 7 7 6 6 6 6 6 7 8 8 9 9 8 7 7 6 6 5 5 5 5 5 6 6 7 7 8 9 9 9 10 10 10
32 33 33 34 34 34 33 32 31 30 30 30 29 29 28 26 23 21 19 17 17 17 17 17 17 17 17 16 14 13 12 11 10 9 8 8 8 8 7 6 6 6 6 7 8 8 8 8 8 7 6 6 6 6 6 6 6 6 6 7 7 8 9 9 9 9 10 10 10
32 33 33 34 34 34 33 32 31 30 30 30 29 28 27 25 22 21 19 18 18 18 18 18 18 18 17 16 15 14 13 12 11 10 9 9 9 9 8 7 6 6 6 6 7 7 7 7 7 7 7 7 6 6 6 6 6 7 7 7 8 9 9 9 10 10 10 10 10
33 33 34 34 34 34 33 32 31 31 30 30 29 27 26 24 22 21 19 19 18 19 19 19 19 19 18 16 15 14 13 12 11 11 10 10 10 10 9 8 7 6 6 6 6 6 7 7 7 7 7 7 7 7 7 7 7 7 8 8 9 9 9 9 10 10 10 10 10
34 34 34 35 34 34 33 32 31 31 30 29 28 26 25 24 22 21 20 19 19 20 20 20 20 19 18 17 16 14 13 12 12 11 11 11 11 10 9 8 7 6 5 5 6 6 6 7 7 8 8 8 8 8 7 7 8 8 8 8 9 9 9 9 9 9 10 10 11
34 34 34 34 34 33 32 32 31 30 29 28 27 26 25 24 23 21 20 20 21 21 21 21 21 20 19 17 16 15 14 13 13 12 12 12 12 11 10 8 7 6 6 6 6 7 7 8 8 9 9 9 9 9 8 8 8 8 8 8 9 9 9 9 9 9 10 10 11
34 34 34 33 33 32 32 31 31 30 29 28 27 26 26 24 23 22 22 22 22 22 22 22 21 20 19 18 16 15 15 14 14 13 13 13 12 11 10 8 7 6 6 7 7 8 8 9 9 10 10 10 10 10 9 9 9 8 8 9 9 9 9 9 9 10 10 11 11
34 34 33 33 32 32 31 31 31 30 29 28 28 27 26 25 24 24 24 23 23 23 23 22 21 20 19 18 17 16 15 15 15 14 14 13 13 12 10 9 8 7 7 8 8 9 10 10 11 11 12 12 11 11 10 9 9 9 8 8 9 8 8 9 9 10 10 11 11
34 33 33 32 32 31 31 31 31 30 30 29 29 28 27 26 26 25 25 24 24 23 23 22 22 20 19 18 17 16 16 15 15 15 14 14 13 12 11 9 8 8 8 9 10 10 11 12 12 12 12 12 12 11 10 9 9 9 9 9 9 9 9 9 10 10 11 11 11
34 33 32 32 32 32 32 32 31 31 31 31 30 30 28 27 26 26 25 25 24 24 23 23 22 21 20 19 18 17 17 16 16 15 15 14 13 12 11 10 9 9 9 10 11 12 12 13 13 13 13 12 12 11 10 10 9 9 9 9 9 9 9 9 10 10 11 11 11
34 33 33 32 32 32 33 33 33 33 32 32 32 30 29 28 27 26 26 25 25 24 24 23 23 22 21 20 19 18 18 17 17 16 15 14 14 12 11 10 9 9 10 11 12 13 14 14 14 13 13 12 12 11 11 10 10 9 9 9 9 9 9 10 10 10 11 11 11
34 34 33 33 33 34 34 34 34 34 34 33 32 30 29 27 27 26 26 25 25 25 25 24 23 22 22 21 20 20 19 19 18 17 15 14 13 12 11 10 9 10 11 12 13 14 14 14 14 13 13 12 12 11 11 10 10 9 9 9 9 10 10 10 10 10 10 10 10
34 34 34 34 35 35 35 35 35 35 34 33 32 30 28 27 26 26 25 26 25 25 25 25 24 23 23 22 21 21 20 19 18 17 15 14 13 12 10 10 10 10 11 12 13 14 14 14 14 14 13 13 12 12 11 10 10 10 10 10 10 10 10 10 10 10 10 10 11
34 34 35 35 36 36 36 36 35 35 34 33 31 29 28 26 26 26 26 26 26 26 25 25 24 24 23 22 22 21 20 19 18 17 15 14 13 12 10 10 10 11 12 13 13 14 14 14 14 14 14 13 12 12 11 11 10 10 10 10 10 10 10 10 10 10 10 11 12
35 35 35 36 36 36 36 36 35 35 33 32 30 29 27 26 26 26 26 26 26 26 26 25 25 24 23 22 22 21 20 19 18 17 16 14 13 12 10 10 10 11 12 13 14 14 14 15 15 15 14 14 13 12 12 11 11 11 11 11 11 11 10 10 10 10 10 11 13
35 35 35 36 37 37 37 36 36 35 33 32 30 29 27 27 26 26 26 26 26 26 26 26 25 24 23 22 22 21 20 19 18 17 16 15 13 11 10 10 11 12 13 14 14 15 15 16 16 15 15 14 13 13 13 12 12 12 12 11 11 11 10 10 10 10 10 11 12
35 35 35 36 37 38 38 37 36 35 34 32 31 29 28 27 26 26 26 26 27 26 26 26 25 24 23 22 21 21 20 19 18 17 16 15 13 11 10 10 11 12 13 14 15 16 16 17 16 16 15 14 14 14 13 13 13 13 12 12 12 11 11 10 9 10 10 11 11
35 35 36 37 38 39 39 38 37 36 35 33 31 29 28 27 27 27 27 27 27 27 26 26 25 24 23 22 21 20 20 19 18 17 16 14 12 11 11 11 12 12 14 15 15 16 17 17 17 16 15 15 14 14 14 14 14 13 13 12 12 11 10 9 9 10 10 10 10
36 36 37 38 39 39 39 38 37 36 35 33 31 29 28 28 28 28 28 28 27 27 26 26 25 24 23 22 21 20 20 19 18 17 15 13 11 11 11 11 12 13 14 15 16 16 17 17 17 16 15 15 15 15 15 15 14 14 13 13 12 11 10 9 9 9 9 9 9
37 36 37 37 37 38 38 38 38 37 35 33 31 30 29 29 28 28 28 27 27 26 26 26 25 24 23 22 21 21 20 19 18 16 14 12 11 11 11 11 12 13 14 15 16 16 16 17 16 16 15 15 16 16 16 16 15 14 13 13 12 11 10 9 9 8 8 8 8
36 36 35 36 35 36 37 37 37 36 34 33 31 30 30 29 28 28 27 26 25 25 25 25 25 24 23 22 22 21 20 19 17 15 12 11 11 11 11 12 12 13 14 15 15 15 15 15 15 14 15 16 17 17 17 16 15 14 14 13 12 11 10 10 9 8 8 7 7
34 33 33 33 33 34 35 36 35 35 34 33 31 30 29 29 28 27 26 25 24 24 24 24 25 24 23 22 22 21 20 18 16 13 12 12 11 11 11 12 12 13 13 14 14 14 14 13 13 14 16 18 18 18 17 16 15 14 14 13 12 11 11 10 9 9 8 7 7
32 31 30 30 31 32 33 33 34 34 33 32 31 30 29 28 27 26 25 24 24 23 23 24 24 24 23 22 22 21 19 16 14 12 11 11 11 11 11 11 11 12 12 12 13 12 11 11 13 15 17 19 19 18 17 16 15 14 14 13 12 12 11 10 9 9 8 7 7
30 29 29 29 30 31 31 32 33 33 32 31 30 29 28 27 26 26 25 24 23 23 23 23 23 23 22 22 22 20 17 14 12 11 10 10 10 10 10 10 11 11 11 11 11 10 10 11 14 17 19 21 20 19 17 16 15 15 14 14 13 12 11 10 10 9 8 8 7
28 28 28 29 29 30 30 31 31 31 30 29 28 28 27 26 26 25 24 23 22 22 22 22 22 21 21 21 20 17 14 12 10 9 9 9 10 10 10 10 10 11 10 10 9 9 11 14 16 19 21 22 20 19 17 16 16 15 15 14 13 12 11 10 10 9 9 8 8
28 27 28 28 28 29 29 30 30 30 29 28 27 26 26 25 25 24 23 22 21 21 21 21 20 20 20 19 17 15 13 11 10 9 9 10 10 10 10 10 10 9 8 8 9 12 15 17 19 21 22 22 20 19 18 17 16 16 15 15 14 13 12 11 10 10 9 9 9
27 27 27 27 27 28 28 28 29 29 28 27 26 25 25 24 23 22 21 21 20 20 20 19 18 18 18 17 16 14 13 12 11 11 11 11 10 10 10 10 9 8 8 10 13 16 18 20 21 23 23 22 20 19 18 18 17 17 16 16 15 14 12 11 11 10 10 10 10
26 26 26 26 25 26 26 27 28 27 27 26 25 24 24 23 22 21 21 20 19 18 17 17 17 17 17 17 16 15 14 14 13 13 13 12 11 10 10 10 9 10 12 14 16 18 20 21 23 23 23 22 21 20 19 19 18 18 17 17 16 15 13 12 11 11 11 11 11
24 24 24 24 24 24 25 26 26 26 25 24 23 23 23 22 21 20 19 18 17 16 16 17 17 17 17 17 17 16 16 15 15 15 14 13 12 11 11 12 13 14 15 17 18 20 21 23 24 24 23 22 21 20 20 20 19 19 18 18 17 16 15 13 13 12 12 12 12
23 23 23 22 22 23 24 25 25 25 24 24 23 22 22 21 20 19 17 17 17 18 18 18 17 17 17 17 17 17 17 17 17 16 14 14 13 13 14 15 16 17 17 18 19 21 22 24 24 24 24 23 22 21 21 21 21 20 20 19 18 17 16 15 14 13 13 13 13
21 21 21 21 22 23 24 24 24 24 24 23 23 22 20 19 18 17 17 18 19 19 18 17 17 17 18 18 18 18 18 18 17 15 14 14 14 15 16 17 18 18 18 19 20 22 23 24 24 24 24 24 23 23 22 22 22 21 21 20 20 18 17 16 15 14 14 14 14
19 19 20 21 22 24 24 24 23 23 23 22 21 20 19 18 18 19 19 20 19 18 17 17 17 18 18 18 18 18 17 17 16 15 14 15 16 17 18 18 19 18 18 19 21 23 24 24 24 24 25 25 25 24 23 23 23 23 22 22 21 20 18 17 16 16 16 16 15
17 18 19 21 22 23 23 22 22 22 21 20 19 18 18 19 19 20 19 18 17 16 16 16 17 18 18 18 17 16 16 15 15 16 16 17 18 18 18 19 19 18 19 20 22 24 24 24 24 24 25 25 25 24 24 24 24 24 23 23 22 21 20 19 18 18 17 17 16
17 18 20 21 22 22 21 20 20 19 18 18 18 18 19 19 19 19 17 15 14 14 15 16 16 17 16 16 15 15 15 15 16 17 18 19 19 19 19 19 19 20 20 22 23 24 24 23 23 24 25 25 25 25 25 25 25 25 25 24 24 23 22 21 20 19 19 18 18
17 19 20 20 20 19 19 18 17 17 17 17 17 18 19 18 17 16 15 13 13 13 14 14 15 15 14 14 15 15 16 17 18 19 20 19 19 19 19 19 21 22 22 22 23 22 22 21 22 23 24 25 25 25 25 26 26 27 26 26 25 24 24 23 21 21 20 20 19
Wind_Direction
213 213 212 211 209 208 207 207 207 205 203 200 198 197 198 198 199 199 200 201 203 205 206 207 209 215 222 224 215 203 194 191 190 191 196 203 214 234 265 290 302 301 298 295 292 290 289 289 291 295 301 307 312 314 314 314 314 311 308 305 301 300 299 298 294 292 290 288 286
214 215 214 213 211 210 208 208 207 206 204 203 202 202 202 202 202 202 203 204 206 208 208 208 211 217 220 217 206 197 193 192 193 196 200 205 218 237 262 279 284 283 281 279 278 278 278 280 284 290 297 303 308 310 311 310 310 308 305 301 299 298 297 295 292 289 287 285 284
215 215 215 213 211 209 208 207 207 205 204 204 204 205 205 205 205 205 205 206 208 208 207 207 211 216 215 208 199 194 194 196 199 202 204 209 220 237 254 265 268 268 267 268 269 271 273 275 281 287 294 299 304 306 307 308 309 308 304 299 297 297 296 295 292 290 287 285 285
215 215 214 213 212 211 210 209 208 206 205 205 205 206 206 206 206 206 207 207 206 205 205 208 211 212 208 201 195 194 196 199 203 205 208 214 222 234 246 255 258 260 263 266 270 272 273 273 279 286 292 296 299 302 305 307 309 309 306 301 298 297 297 296 293 290 288 286 287
214 215 215 215 214 214 213 212 210 208 206 206 205 204 205 205 206 207 207 206 204 203 206 210 209 206 202 197 195 196 198 201 204 207 212 218 226 234 240 245 250 258 264 271 274 274 272 272 277 284 288 292 295 298 302 306 309 310 309 306 302 300 299 297 295 292 289 288 288
214 215 216 217 216 214 214 213 211 209 207 206 205 204 204 205 206 207 206 204 202 204 207 209 207 202 198 195 195 198 201 204 206 210 215 221 227 230 234 237 245 256 266 272 274 272 270 272 277 281 284 286 288 292 297 302 306 310 311 310 307 304 301 298 295 293 290 290 291
215 216 216 216 215 213 211 211 209 208 207 206 205 204 205 206 207 206 205 204 204 206 208 208 205 200 196 195 197 200 203 206 209 214 219 223 226 228 230 234 243 255 265 270 270 269 269 272 274 276 277 278 280 285 291 297 303 308 311 312 309 306 302 298 295 293 291 291 292
217 217 216 215 213 211 209 209 208 207 207 207 207 207 207 208 207 205 204 205 206 208 209 209 205 200 198 197 199 202 205 208 211 215 220 224 225 227 229 235 243 255 263 268 269 269 269 270 270 269 269 270 273 279 287 294 301 307 310 310 307 304 300 296 293 290 290 290 291
215 215 214 213 211 209 208 208 208 208 208 208 209 209 209 208 206 205 205 208 209 211 211 210 206 202 200 201 202 204 206 210 214 217 221 223 225 227 230 235 244 254 262 266 267 268 269 268 266 264 263 265 268 274 283 292 298 303 305 305 303 299 296 292 289 287 286 287 288
212 211 210 208 207 207 207 208 209 210 211 210 210 210 208 207 206 207 209 212 213 212 210 208 205 202 202 203 205 206 209 212 215 219 221 223 225 227 230 235 245 253 259 264 266 267 266 264 261 260 261 264 267 273 280 288 293 297 299 299 298 295 291 287 285 284 283 284 284
210 208 206 205 205 206 207 208 209 210 211 211 210 208 207 206 206 209 212 214 213 211 209 208 205 203 203 204 206 209 211 214 217 219 221 223 224 227 230 236 244 252 259 262 265 264 262 260 260 261 262 264 267 271 276 282 287 291 293 293 293 290 286 283 280 279 280 281 282
208 206 205 204 205 206 207 208 209 210 210 210 208 207 206 206 207 210 213 214 213 211 210 208 206 205 205 206 208 211 214 216 218 219 221 223 224 226 230 235 243 252 259 262 263 262 261 261 262 263 263 265 266 270 273 278 282 286 288 289 288 286 282 278 274 275 278 279 279
206 204 204 204 205 207 208 209 209 209 209 208 208 207 206 207 209 212 213 214 213 212 210 208 207 207 208 209 211 214 216 217 218 220 221 222 224 227 231 236 243 252 258 261 264 264 264 265 265 265 264 265 266 268 271 275 279 282 284 285 283 281 276 272 271 273 275 275 274
204 204 204 205 206 208 208 209 209 209 209 208 208 208 208 209 211 213 215 215 213 212 210 208 208 209 210 212 214 216 218 218 219 220 221 223 226 229 232 238 246 254 261 264 267 268 268 268 268 267 266 265 265 267 269 273 276 279 281 281 278 275 271 267 268 270 271 271 270
204 205 206 206 207 208 209 209 210 210 210 209 209 209 210 211 213 214 215 215 214 213 211 209 208 209 212 215 217 219 219 220 220 220 222 224 228 231 235 241 249 258 265 268 270 271 271 271 269 268 266 265 265 266 269 272 274 276 276 276 274 272 269 266 267 268 268 269 270
204 205 207 207 208 209 209 210 210 211 211 210 211 211 211 212 214 215 215 214 213 213 211 210 209 210 212 215 218 219 220 220 220 221 223 226 230 233 238 244 253 262 269 271 272 273 273 272 270 268 265 264 264 266 268 270 272 273 272 272 271 270 269 267 268 268 268 269 270
205 206 207 208 209 210 210 211 211 212 212 212 211 211 211 213 214 215 215 214 213 212 211 211 211 212 212 214 216 218 219 219 220 222 225 229 232 236 241 249 259 267 272 274 274 274 273 272 269 266 263 262 263 265 267 269 270 270 270 270 270 269 268 268 268 268 268 270 273
206 207 209 210 211 211 212 212 213 213 213 212 211 211 213 214 215 215 215 215 214 213 213 212 213 213 214 214 216 217 218 219 220 223 227 231 234 238 244 254 264 270 273 274 274 274 273 271 268 264 261 260 261 263 266 268 269 269 268 268 268 268 268 268 267 267 269 273 280
207 209 210 211 212 213 214 214 214 214 214 213 212 212 214 216 217 216 215 215 215 216 215 214 214 214 215 216 217 218 219 220 222 225 229 233 236 240 247 258 267 271 273 272 273 273 272 269 265 261 258 258 259 262 264 265 266 267 267 266 266 266 265 264 265 267 273 280 289
208 210 212 214 215 215 216 216 216 215 214 213 212 213 215 217 218 218 217 217 217 217 217 217 216 216 216 217 218 219 221 222 225 228 231 233 236 241 250 260 268 272 273 271 271 270 268 266 262 258 256 257 258 260 261 263 264 265 265 264 263 261 260 261 264 270 279 288 296
211 214 216 217 218 217 217 217 217 216 215 213 213 214 217 219 219 220 219 219 219 218 218 218 218 218 218 218 219 221 222 224 226 229 231 233 235 241 250 261 269 273 274 272 270 268 266 262 259 257 255 256 257 259 260 261 261 261 261 259 257 256 257 260 266 276 286 295 301
215 218 220 221 220 219 218 218 217 215 214 214 215 216 218 220 221 222 222 221 220 219 219 219 220 220 220 221 221 222 224 225 227 229 230 231 234 240 250 260 268 273 274 272 269 266 263 260 257 255 255 256 257 258 259 258 257 256 255 253 252 252 255 261 270 281 292 300 305
219 222 224 224 222 220 219 217 215 214 213 214 215 217 219 222 223 223 222 221 221 220 220 221 221 222 223 224 224 225 225 226 227 228 229 229 233 241 251 260 267 272 274 271 268 265 261 258 255 254 255 257 258 259 257 255 254 252 250 249 249 250 254 262 274 285 295 302 307
224 226 226 225 222 220 217 216 214 213 213 214 215 218 220 222 223 223 223 222 221 221 222 223 223 224 225 226 227 227 227 227 227 227 227 228 233 243 253 261 266 271 274 272 269 265 261 257 254 254 256 259 261 259 256 253 251 250 248 247 246 249 254 263 275 287 297 304 309
226 228 228 225 221 218 216 215 214 213 213 214 216 218 220 222 223 223 223 223 223 224 225 225 226 226 226 227 227 228 229 229 228 226 225 228 236 246 255 262 268 273 275 274 270 266 261 258 255 256 258 261 262 259 255 251 250 249 247 245 245 248 256 265 276 286 295 304 312
227 229 228 225 221 217 215 214 214 214 214 215 216 218 221 222 223 224 224 225 226 227 228 229 228 227 226 226 227 229 230 230 228 225 225 230 239 248 255 263 270 275 277 276 272 266 261 257 257 260 264 266 263 258 254 252 249 247 244 244 245 251 258 268 277 285 294 304 314
228 228 227 224 220 216 215 215 214 214 215 216 217 219 221 222 223 224 225 227 229 231 232 232 230 228 227 227 229 230 231 229 225 223 225 233 241 249 257 264 272 277 279 277 272 265 259 257 260 268 274 273 266 260 254 249 245 243 242 243 247 253 261 269 277 284 293 302 312
227 228 226 223 219 217 216 215 214 214 215 216 218 220 221 223 224 225 227 229 231 233 234 233 231 229 228 228 231 232 232 227 222 222 227 236 243 250 257 265 272 277 279 276 269 262 257 260 269 278 280 276 266 257 250 245 241 240 241 243 248 255 262 269 276 282 290 298 307
227 227 225 221 219 218 217 215 214 215 216 218 219 220 222 223 225 226 228 230 232 235 235 234 231 229 228 230 232 233 229 222 219 222 230 238 246 253 260 268 274 278 277 272 264 258 259 268 277 279 277 273 262 252 245 242 240 241 242 245 250 257 263 269 275 281 287 293 300
226 225 223 221 219 218 217 216 216 217 218 218 219 220 222 224 226 227 229 231 234 236 236 235 231 230 232 234 233 228 221 215 216 222 230 240 249 257 264 272 278 279 274 266 258 257 264 274 276 275 273 268 257 247 241 240 241 243 245 248 252 257 263 269 274 279 283 287 292
224 223 222 221 220 218 218 218 218 218 218 219 219 221 222 224 226 228 231 233 236 237 237 234 232 233 236 234 227 218 210 208 212 221 233 244 253 260 267 273 277 275 267 258 255 261 269 274 274 274 271 262 251 244 241 241 243 244 246 249 253 257 262 268 273 277 280 283 286
223 222 221 220 219 218 218 219 219 219 219 219 219 221 222 225 227 230 232 234 237 237 235 232 231 230 228 222 212 204 200 205 215 227 239 248 256 262 267 270 270 266 258 252 258 266 271 274 275 273 267 257 248 242 242 243 244 246 248 250 253 257 262 267 272 275 277 279 281
221 220 219 218 218 218 218 218 218 218 218 218 219 221 223 225 227 230 231 234 235 234 231 227 222 217 211 204 199 198 204 213 225 237 246 252 257 262 265 265 261 254 251 255 262 268 273 276 275 270 262 253 246 243 242 243 244 246 248 250 253 257 262 267 270 274 276 277 278
218 217 217 216 216 216 216 217 218 218 217 217 219 221 223 224 226 228 230 231 230 226 219 212 206 201 199 199 200 205 213 224 234 243 249 254 256 258 258 256 251 249 253 260 266 271 274 275 272 266 258 250 245 243 242 242 243 245 247 250 253 257 261 266 270 274 275 275 275
216 215 214 213 213 214 215 216 216 216 215 215 217 218 220 222 224 226 227 224 216 206 197 193 193 195 198 203 207 214 222 231 239 245 250 253 254 253 251 249 249 253 259 266 271 274 274 272 268 262 255 248 244 243 242 242 243 245 248 250 253 256 260 265 269 272 273 273 272
214 212 211 210 211 213 214 214 214 214 213 213 214 215 216 218 220 220 216 207 195 187 184 185 190 196 202 209 215 222 230 238 243 246 247 249 249 248 248 251 255 261 267 272 274 273 272 269 264 258 252 246 243 242 243 243 245 246 249 251 253 256 260 264 267 269 269 269 269
213 211 210 210 211 212 213 213 213 212 211 211 211 211 212 212 210 206 199 190 184 181 183 188 195 202 209 216 223 230 236 241 244 244 243 243 245 249 253 259 266 272 275 275 274 273 270 266 260 254 249 244 242 242 242 243 245 247 249 251 253 256 260 262 264 265 265 266 267
213 212 212 212 212 212 212 212 211 210 210 210 209 209 207 204 197 191 188 186 185 186 191 198 204 211 218 224 230 234 238 240 242 242 243 246 251 257 264 270 276 279 279 276 275 274 272 267 259 252 247 243 243 243 243 244 245 247 249 251 254 256 258 260 262 262 263 263 264
214 214 214 214 213 212 210 210 210 209 208 207 206 204 201 195 189 186 187 191 196 201 206 210 214 219 225 229 233 235 237 240 244 248 252 257 263 269 274 277 279 279 279 278 277 277 275 271 261 252 246 244 244 244 244 245 245 247 249 252 254 256 257 258 260 261 262 262 262
216 215 214 213 210 208 207 206 207 207 206 204 200 197 193 189 187 188 192 200 207 213 216 217 220 224 228 231 234 238 243 249 255 261 266 270 275 278 278 277 277 278 279 280 280 278 275 270 261 252 246 244 244 245 245 246 246 247 249 251 254 255 257 257 258 260 261 261 261
214 212 210 207 205 203 202 201 202 203 203 201 196 193 190 189 189 193 199 204 208 211 214 216 220 225 229 234 241 248 256 263 268 272 276 278 279 278 276 274 275 278 281 282 280 277 272 265 258 251 246 244 244 245 245 245 245 246 248 251 253 255 257 257 258 258 260 260 260
Height
831 832 833 834 835 835 836 837 838 839 839 840 841 842 842 843 844 844 845 845 846 847 847 849 850 851 852 853 853 854 854 854 855 856 856 857 857 858 858 858 858 859 859 859 859 859 859 859 859 859 859 858 858 858 858 858 858 857 857 857 857 857 857 856 856 856 856 856 856
829 831 832 833 833 834 835 836 837 837 838 839 840 840 841 842 842 843 843 844 845 846 847 848 849 850 851 852 853 853 854 854 854 855 856 856 857 857 857 857 857 858 858 858 858 858 858 858 858 858 858 857 857 857 857 857 857 857 856 856 856 856 856 856 855 855 855 855 855
828 829 830 831 832 832 833 834 835 836 837 838 839 839 840 840 841 842 842 843 844 845 846 847 848 849 850 851 852 852 853 854 854 854 855 855 856 856 856 856 857 857 857 857 857 857 857 857 857 857 857 857 857 856 856 856 856 856 855 855 855 855 855 855 855 854 854 854 854
826 827 828 829 830 830 831 832 833 834 836 837 838 839 839 840 841 841 842 843 844 845 846 846 847 848 849 850 851 852 852 853 853 854 854 854 854 855 855 855 856 856 856 856 856 856 856 856 856 856 856 856 856 855 855 855 855 855 855 854 854 854 854 854 854 854 854 854 853
824 825 826 827 828 829 830 831 832 833 834 836 837 838 839 840 840 841 842 842 843 844 845 846 846 847 848 849 850 851 851 852 852 853 853 853 853 854 854 854 854 855 855 855 855 855 855 855 855 855 855 855 855 854 854 854 854 854 854 854 854 854 853 853 853 853 853 853 853
822 823 824 826 827 828 829 830 831 832 833 835 836 837 838 839 840 841 841 842 842 843 844 845 845 846 847 848 849 849 850 851 851 852 852 852 852 853 853 853 854 854 854 854 854 854 854 854 854 854 854 854 854 854 853 853 853 853 853 853 853 853 853 852 853 852 852 852 852
820 822 823 824 825 826 828 829 830 831 832 833 834 835 836 837 839 840 841 841 842 843 843 844 844 844 845 846 847 848 849 849 850 850 851 851 852 852 852 852 852 853 853 853 853 853 853 853 853 853 853 853 852 852 852 852 852 852 852 852 852 852 852 852 852 852 851 851 851
819 820 821 822 824 825 826 827 829 830 831 832 833 834 835 836 838 839 840 841 841 842 842 842 843 843 844 845 846 847 847 848 849 849 850 850 851 851 851 851 852 852 852 852 852 852 852 852 852 852 852 851 851 851 851 851 851 851 851 851 851 851 851 850 850 850 850 850 850
818 819 820 821 822 823 825 826 827 828 829 830 831 833 834 836 837 838 839 839 840 840 841 841 842 842 843 844 845 845 846 847 848 848 849 849 849 850 850 850 850 850 850 850 851 851 851 851 850 850 850 850 850 850 850 850 850 850 850 850 850 849 849 849 849 849 849 849 849
816 817 818 819 821 822 823 824 826 827 828 829 830 832 833 834 836 836 837 838 838 839 839 840 841 841 842 843 843 844 845 846 846 847 847 848 848 848 848 849 849 849 849 849 849 849 849 849 849 849 849 849 849 849 849 849 849 849 849 849 849 848 848 848 848 848 848 848 848
814 815 816 818 819 821 822 823 824 825 827 828 829 831 832 833 834 835 836 836 837 837 838 838 839 840 840 841 842 843 844 844 845 845 846 846 846 847 847 847 848 848 848 848 848 848 848 848 848 848 848 848 848 848 848 848 847 847 847 847 847 847 847 847 847 847 847 847 847
813 814 815 817 818 820 821 822 823 824 826 827 828 829 831 832 832 833 834 835 835 836 836 837 838 838 839 840 841 842 842 843 843 844 844 844 845 845 846 846 846 847 847 847 847 847 847 847 847 847 847 847 847 847 846 846 846 846 846 846 846 846 846 846 846 846 846 846 846
812 813 815 817 818 819 820 822 823 824 825 826 827 828 829 830 831 832 832 833 833 834 835 836 836 837 838 839 839 840 841 841 842 842 843 843 844 844 845 845 845 846 846 846 846 846 846 846 846 846 846 846 846 845 845 845 845 845 845 845 845 845 845 845 845 845 845 844 844
812 813 814 816 817 818 820 821 822 823 824 825 826 827 827 828 829 829 830 831 831 832 833 834 835 836 837 838 838 839 839 840 841 841 842 842 843 844 844 844 844 844 844 845 845 845 845 845 845 845 845 845 844 844 844 844 844 844 844 844 844 844 844 844 844 844 844 843 843
811 812 814 815 816 817 819 820 821 822 823 823 824 825 826 826 827 828 828 829 830 831 832 833 834 835 836 837 837 838 838 839 840 840 841 842 842 842 843 843 843 843 843 844 844 844 844 844 844 844 844 844 844 844 843 843 843 843 843 843 843 843 843 843 843 842 842 842 842
810 811 812 814 815 816 817 818 819 820 821 821 822 823 824 824 825 826 827 828 829 830 831 832 832 833 834 835 836 837 837 838 839 839 840 840 841 841 841 842 842 842 842 842 843 843 843 843 843 843 843 843 843 843 843 842 842 842 842 842 842 842 842 842 842 841 841 841 841
808 809 811 812 813 814 815 816 817 817 818 819 820 821 822 823 824 825 826 827 828 829 829 830 831 832 833 833 834 835 836 837 837 838 839 839 839 840 840 840 840 841 841 841 841 842 842 842 842 842 842 842 842 842 842 842 841 841 841 841 841 841 841 840 840 840 840 840 840
807 808 809 810 811 812 812 813 814 815 816 817 818 819 821 822 823 824 825 826 826 827 828 828 829 830 831 832 832 833 834 835 836 837 837 838 838 839 839 839 839 839 840 840 840 840 841 841 841 841 841 841 841 841 841 841 840 840 840 840 840 840 839 839 839 839 839 839 839
805 807 808 808 809 809 810 811 812 813 814 815 817 819 820 821 822 823 824 824 825 826 826 827 827 828 829 830 831 832 833 833 834 835 836 837 837 837 838 838 838 838 839 839 839 839 839 839 840 840 840 840 840 840 840 840 839 839 839 839 839 839 839 838 838 838 838 838 838
804 805 806 807 807 808 809 809 810 812 813 815 817 818 819 820 821 822 822 823 824 824 825 826 826 827 828 829 830 831 832 832 833 834 835 836 836 836 837 837 837 837 838 838 838 838 838 838 839 839 839 839 839 839 839 839 838 838 838 838 838 838 837 837 837 837 837 837 836
803 804 804 805 806 807 808 809 810 811 813 814 816 817 818 819 820 820 821 822 823 823 824 825 825 826 827 828 829 830 830 831 832 833 834 834 835 835 835 836 836 836 837 837 837 837 837 837 837 837 837 837 837 837 837 837 837 837 837 837 837 837 837 836 836 836 836 836 835
801 802 804 804 805 806 807 808 809 811 812 814 815 816 817 817 818 819 820 821 822 823 823 824 825 826 826 827 828 829 829 830 831 832 832 833 834 834 834 834 835 835 835 836 836 836 836 836 836 836 836 836 836 836 836 836 836 836 836 836 836 836 836 835 835 835 835 834 834
800 802 803 803 804 805 806 807 808 809 811 812 813 814 815 816 817 818 819 820 821 822 822 823 824 825 826 826 827 828 828 829 830 830 831 832 832 833 833 833 834 834 834 834 834 834 834 834 834 834 835 835 835 835 835 835 835 835 835 835 835 835 834 834 834 834 834 833 833
800 801 801 802 802 803 804 805 806 808 809 810 812 813 814 815 816 817 818 819 820 821 822 823 824 824 825 826 827 827 827 828 828 829 830 830 831 831 832 832 832 833 833 833 833 833 833 833 833 833 833 834 834 834 834 834 834 834 834 834 834 834 833 833 833 833 832 832 832
799 799 800 800 800 801 802 803 805 806 807 809 810 811 812 813 814 816 817 818 819 820 821 822 823 824 824 825 826 826 827 827 827 828 829 829 830 830 831 831 831 831 832 832 832 832 832 832 832 832 832 833 833 833 833 833 832 832 832 832 832 832 832 832 832 832 831 831 831
797 798 798 798 798 799 800 802 803 804 806 807 809 810 811 812 813 814 816 817 818 819 820 821 822 823 824 824 825 826 826 826 826 827 828 828 829 829 829 830 830 830 830 830 830 830 830 830 831 831 831 832 832 832 832 831 831 831 831 831 831 831 831 831 831 830 830 830 830
796 796 796 796 797 798 799 800 802 803 805 807 808 809 810 811 812 814 815 816 817 818 819 821 821 822 823 824 824 825 825 825 826 826 827 827 827 828 828 828 828 829 829 829 829 829 829 829 830 830 831 831 831 830 830 830 830 830 830 830 830 830 830 830 829 829 829 829 829
794 794 794 795 796 797 798 799 801 803 804 806 807 808 809 810 811 813 814 815 816 817 819 819 820 821 822 823 823 824 824 824 825 825 826 826 826 826 826 826 827 827 827 827 827 827 828 828 829 829 830 829 829 829 829 829 829 829 829 829 829 829 829 828 828 828 828 828 827
792 792 794 795 796 797 798 799 801 802 804 805 806 807 808 809 810 812 813 814 815 816 817 818 819 820 821 822 822 823 823 824 824 824 824 825 825 825 825 825 825 825 825 825 826 826 827 827 828 828 828 828 828 827 827 827 827 827 827 827 827 827 827 827 827 827 827 826 826
789 791 792 794 795 796 797 799 800 802 803 804 805 806 807 808 809 810 811 813 814 815 816 817 817 819 820 821 821 822 822 822 823 823 823 824 824 824 824 823 823 823 824 824 824 825 826 826 827 827 827 826 826 826 826 826 826 826 826 826 826 826 826 826 826 825 825 825 825
788 789 791 792 794 795 796 798 800 801 803 803 804 805 806 807 808 809 810 811 812 813 814 815 816 817 819 820 820 821 821 821 821 822 822 822 822 822 822 822 822 822 822 823 823 824 825 825 825 825 825 824 824 824 824 824 824 824 824 825 825 824 824 824 824 824 824 824 823
786 787 789 791 792 794 795 797 799 800 802 802 803 804 804 805 807 808 809 810 811 812 813 814 815 816 817 819 819 819 819 820 820 821 821 821 821 821 820 820 820 821 821 822 822 823 823 823 823 823 823 823 823 823 823 823 823 823 823 823 823 823 823 823 823 822 822 822 822
784 786 788 789 791 793 795 797 798 799 800 801 802 803 804 805 806 807 808 809 809 810 811 812 813 814 816 817 817 818 818 819 819 820 820 820 819 819 819 819 819 819 820 820 821 821 821 821 821 821 821 821 821 821 821 822 822 822 822 822 822 822 822 821 821 821 821 821 820
783 785 787 788 790 792 794 796 797 798 799 800 801 802 803 804 805 805 806 807 808 809 809 810 811 813 814 815 816 817 817 818 819 819 819 818 818 818 818 818 818 818 818 819 819 819 819 819 819 819 819 819 820 820 820 820 820 820 820 820 820 820 820 820 819 819 819 819 819
783 784 786 788 790 792 794 795 796 797 798 799 800 801 802 802 803 804 804 805 806 807 808 809 810 812 813 814 815 816 816 817 817 817 817 817 817 816 816 816 816 816 817 817 817 817 817 817 817 817 818 818 818 818 818 818 818 818 818 819 819 818 818 818 818 818 818 817 817
782 784 786 788 790 792 793 794 795 796 797 797 798 799 800 801 802 802 803 804 805 806 806 807 809 811 812 813 814 815 815 816 816 815 815 815 815 815 815 815 815 815 815 815 815 815 815 815 815 816 816 816 817 817 817 817 817 817 817 817 817 817 817 817 816 816 816 816 816
783 784 786 788 789 791 792 792 793 794 795 796 796 797 798 799 800 801 802 803 804 804 805 806 808 810 811 812 813 814 814 814 814 814 813 813 813 813 813 813 813 814 814 814 814 814 814 814 814 814 814 815 815 815 815 815 815 815 815 815 815 815 815 815 815 815 814 814 814
783 784 786 787 789 789 790 791 792 793 794 794 795 796 797 798 799 800 801 802 803 804 805 806 807 809 810 811 812 812 812 812 812 812 812 812 811 812 812 812 812 812 812 812 812 812 812 812 812 813 813 813 813 813 813 813 813 813 813 813 813 813 813 813 813 813 813 813 813
783 784 786 787 787 788 789 791 791 792 793 794 795 796 797 798 799 799 800 801 802 803 804 806 807 808 809 810 810 810 810 810 810 810 810 810 810 810 810 810 810 810 810 810 810 810 810 810 811 811 811 811 811 811 812 812 812 812 812 812 812 812 812 812 811 811 811 811 811
783 784 784 785 787 788 789 790 791 792 793 794 795 796 797 798 799 799 800 801 802 803 804 805 807 808 808 809 809 809 809 809 809 809 809 809 809 809 809 808 808 808 808 808 808 808 808 809 809 809 809 809 809 809 810 810 810 810 810 810 810 810 809 809 810 809 809 809 809
782 783 784 785 786 787 788 790 791 792 793 794 795 796 797 798 799 800 800 801 802 803 804 805 806 807 807 807 807 807 807 807 807 807 807 807 807 807 807 807 806 806 806 807 807 807 807 807 807 807 807 807 807 808 808 808 808 808 808 808 808 808 807 807 808 808 808 808 807